STARLINK-32520, 62021

Orbit data source: Space-Track

STARLINK-32520, 62021 is a payload satellite owned by SpaceX/Seattle (US) in LEO that was launched on Mon, 18 Nov 2024 UTC via an FALCON 9 launch vehicle from the Air Force Western Test Range (AFWTR). Payloads include a variety of satellites, spacecraft, and rockets equipped with specific instruments for various scientific and technological missions. These include communications satellites like Starlink; space stations such as the ISS; scientific satellites like the Hubble; Earth observation satellites from companies like Planet Labs, Umbra, and HawkEye 360; GPS; miniature CubeSats for education and research; and military/defense satellites.

Loading next visibility...
STARLINK-32520 details
Identifier
62021, 2024-213P
Orbit
LEO
Last TLE update14 hours ago
Origin
Flag of USSpaceX/Seattle (US)
ManufacturerSpaceX/Seattle
MissionOperational spacecraft
Bus & MotorSTARLINK V2M, Unknown motor
Mass730 kg wet, ~700 kg dry
Launch date (UTC)
2024-11-18 (1 month ago)
Launch vehicle
FALCON 9
Launch site
Air Force Western Test Range (AFWTR)
Object type
Payload
Rocket body
Debris
Shape & HBRUnknown
Radar Cross SectionLarge (>1 m²)

Expand to show TLE details & history

TLE from 14 hours ago
0 STARLINK-32520
1 62021U 24213P   24360.87920449  .00001254  00000-0  41332-4 0  9990
2 62021  53.1637  51.8465 0001800 107.5360 252.5842 15.39618547  7103
Epoch: 2024-12-25T21:06Z
Definitive object data (Epoch: 2024-12-25T21:06:03.267Z)
Latitude-0.00002°
Longitude0.46625°
Altitude448.508 km
Speed7.644 km/s
True Right ascension03h 27m 23s
True Declination0° 00' 00"
Sunlit
Object was in full shadow at TLE epoch
Visualization TLE readout
Latitude-51.57418°
Longitude-112.31426°
Altitude466.143 km
Speed7.632 km/s
Apparent Right ascension21h 03m 35s
Apparent Declination-46° 51' 07"
Sunlit
Object is in daylight
Visualization observer readout
Local Sidereal Time10:01:56
Azimuth128.066° SE
Elevation-77.361°
Doppler factor1
Orbital elements
Apogee altitude448.722 km
Perigee altitude446.265 km
Semi-major axis6,825.63 km
Eccentricity0.00018
Inclination53.1637°
RAAN51.8465°
Arg. of periapsis107.536°
True anomaly252.56452°
Mean anomaly252.5842°
Eccentric anomaly252.57436°
Mean motion3.84883 °/min
BSTAR0.000041332
Orbital period93.53 mins
Loading maneuver chart data...
Loading historical data...
Loading historical data...
Loading historical data...
Loading historical data...
Loading historical data...
Loading historical data...
Loading historical data...

STARLINK-32520 Visibility forecast

Observer location: undefined°, undefined

Span
Click to sort rows by Start time (UTC) header in descending order
Start Az.
Max El. time (UTC)
Max El. Az.
Max El.
End time (UTC)
End Az.
4 mins2024-12-26 11:33:43.216Z343.284° N2024-12-26 11:35:43.216Z20.198° NNE15.779°2024-12-26 11:37:43.216Z57.923° ENE
5 mins2024-12-26 13:11:43.216Z314.252° NW2024-12-26 13:13:43.216Z91.529° ESE44.16°2024-12-26 13:16:43.216Z127.522° SE
5 mins2024-12-27 06:00:43.216Z217.935° SW2024-12-27 06:02:43.216Z103.867° ESE43.164°2024-12-27 06:05:43.216Z53.874° ENE
|